EW7070 Weather Reports


time (UTC)temp
C
wind
direction
speed
KPH
gust
KPH
rain 1hr
cm
rain 24hr
cm
rain mn
cm
humidity
%
barometer
mb
20260506151125 30 355 6.4 19.3 0.00 0.00 0.00 68 1015.2
20260506150625 30 5 9.7 17.7 0.00 0.00 0.00 70 1015.2
20260506150123 30 22 9.7 17.7 0.00 0.00 0.00 67 1015.3
20260506145626 30 19 8.0 22.5 0.00 0.00 0.00 68 1015.3
20260506145057 30 339 9.7 24.1 0.00 0.00 0.00 67 1015.4
20260506144827 30 9 8.0 24.1 0.00 0.00 0.00 67 1015.4
20260506144543 30 357 8.0 16.1 0.00 0.00 0.00 68 1015.4
20260506143539 29 83 8.0 17.7 0.00 0.00 0.00 68 1015.5
20260506143011 29 8 8.0 19.3 0.00 0.00 0.00 68 1015.5
20260506142506 29 357 8.0 19.3 0.00 0.00 0.00 69 1015.5
20260506142001 29 323 8.0 24.1 0.00 0.00 0.00 69 1015.6
20260506141434 28 336 9.7 24.1 0.00 0.00 0.00 68 1015.7
20260506140930 28 329 6.4 19.3 0.00 0.00 0.00 70 1015.8
20260506140426 28 6 4.8 19.3 0.00 0.00 0.00 71 1015.8
20260506135901 28 341 4.8 19.3 0.00 0.00 0.00 71 1015.9
20260506135349 28 323 4.8 12.9 0.00 0.00 0.00 72 1016.0
20260506134849 27 332 3.2 11.3 0.00 0.00 0.00 72 1016.1
20260506134323 27 13 1.6 11.3 0.00 0.00 0.00 76 1016.3
20260506133812 27 325 1.6 11.3 0.00 0.00 0.00 74 1016.3
20260506133311 27 296 3.2 11.3 0.00 0.00 0.00 79 1016.3
20260506133038 27 112 1.6 8.0 0.00 0.00 0.00 77 1016.3
20260506132534 26 1 1.6 6.4 0.00 0.00 0.00 75 1016.2
20260506131757 26 123 3.2 11.3 0.00 0.00 0.00 75 1016.2
20260506131251 26 141 3.2 11.3 0.00 0.00 0.00 76 1016.2
20260506130750 26 90 1.6 6.4 0.00 0.00 0.00 80 1016.3
20260506130248 26 107 1.6 4.8 0.00 0.00 0.00 80 1016.4
20260506125717 26 124 1.6 4.8 0.00 0.00 0.00 84 1016.5
20260506125150 25 92 0.0 3.2 0.00 0.00 0.00 84 1016.6
20260506124624 25 227 0.0 3.2 0.00 0.00 0.00 80 1016.7
20260506124119 25 298 1.6 6.4 0.00 0.00 0.00 84 1016.9
20260506123553 24 318 1.6 6.4 0.00 0.00 0.00 82 1016.9
20260506123026 24 289 0.0 4.8 0.00 0.00 0.00 84 1016.9
20260506122459 23 249 1.6 9.7 0.00 0.00 0.00 86 1016.8
20260506121956 23 306 1.6 9.7 0.00 0.00 0.00 86 1016.8
20260506121452 23 310 0.0 6.4 0.00 0.00 0.00 88 1016.6
20260506120923 23 217 0.0 0.0 0.00 0.00 0.00 92 1016.8
20260506120356 22 166 0.0 0.0 0.00 0.00 0.00 92 1016.8
20260506120101 22 106 0.0 1.6 0.00 0.00 0.00 92 1016.8
20260506115327 22 124 0.0 1.6 0.00 0.00 0.00 93 1016.6
20260506114758 22 177 0.0 1.6 0.00 0.00 0.00 94 1016.7
20260506114230 21 143 0.0 1.6 0.00 0.00 0.00 94 1016.7
20260506113958 21 153 0.0 0.0 0.00 0.00 0.00 95 1016.7
20260506113218 21 153 1.6 4.8 0.00 0.00 0.00 94 1016.8
20260506112715 21 131 3.2 8.0 0.00 0.00 0.00 94 1016.8
20260506112159 21 164 3.2 8.0 0.00 0.00 0.00 95 1016.8
20260506111931 21 305 3.2 14.5 0.00 0.00 0.00 95 1016.8
20260506111145 20 320 4.8 14.5 0.00 0.00 0.00 97 1016.7
20260506110645 20 333 6.4 14.5 0.00 0.00 0.00 99 1016.7
20260506110417 20 314 8.0 16.1 0.00 0.00 0.00 99 1016.8
20260506105851 20 282 6.4 16.1 0.00 0.00 0.00 99 1016.6
20260506105055 19 306 3.2 12.9 0.00 0.00 0.00 99 1016.5
20260506104813 19 303 1.6 11.3 0.00 0.00 0.00 99 1016.3
20260506104042 18 177 1.6 6.4 0.00 0.00 0.00 99 1016.3
20260506103809 18 40 1.6 6.4 0.00 0.00 0.00 99 1016.3
20260506103036 18 4 0.0 3.2 0.00 0.00 0.00 99 1016.2
20260506102525 18 177 0.0 4.8 0.00 0.00 0.00 99 1016.1
20260506102001 18 74 0.0 3.2 0.00 0.00 0.00 99 1015.9
20260506101439 18 237 1.6 4.8 0.00 0.00 0.00 99 1015.8
20260506101209 18 329 1.6 3.2 0.00 0.00 0.00 99 1015.8
20260506100659 17 268 0.0 4.8 0.00 0.00 0.00 99 1015.7
20260506100420 17 266 0.0 4.8 0.00 0.00 0.00 99 1015.7
20260506095416 17 30 0.0 0.0 0.00 0.00 0.00 99 1015.7
20260506094904 17 30 0.0 3.2 0.00 0.00 0.00 99 1015.7
20260506094633 17 30 1.6 4.8 0.00 0.00 0.00 99 1015.8
20260506093900 17 30 0.0 4.8 0.00 0.00 0.00 99 1015.8
20260506093608 17 130 0.0 3.2 0.00 0.00 0.00 99 1015.9
20260506092836 17 130 0.0 3.2 0.00 0.00 0.00 99 1015.8
20260506092336 17 106 0.0 4.8 0.00 0.00 0.00 99 1015.7
20260506091832 17 106 1.6 4.8 0.00 0.00 0.00 99 1015.6
20260506091335 17 99 1.6 4.8 0.00 0.00 0.00 99 1015.7
20260506091329 17 275 0.0 3.2 0.00 0.00 0.00 99 1015.6
20260506090326 17 349 1.6 3.2 0.00 0.00 0.00 99 1015.6
20260506085819 17 268 1.6 4.8 0.00 0.00 0.00 99 1015.4
20260506085252 17 51 0.0 0.0 0.00 0.00 0.00 99 1015.5
20260506084738 17 51 0.0 0.0 0.00 0.00 0.00 98 1015.5
20260506084238 17 51 0.0 0.0 0.00 0.00 0.00 98 1015.5
20260506083724 17 51 0.0 0.0 0.00 0.00 0.00 98 1015.4
20260506083202 17 51 0.0 0.0 0.00 0.00 0.00 98 1015.6
20260506082935 17 51 0.0 0.0 0.00 0.00 0.00 98 1015.5
20260506082159 17 51 0.0 0.0 0.00 0.00 0.00 98 1015.4
20260506081657 17 51 0.0 0.0 0.00 0.00 0.00 99 1015.4
20260506081155 17 51 0.0 0.0 0.00 0.00 0.00 99 1015.4
20260506080652 17 51 0.0 0.0 0.00 0.00 0.00 99 1015.3
20260506080152 17 51 0.0 0.0 0.00 0.00 0.00 98 1015.4
20260506073103 16 32 0.0 3.2 0.00 0.00 0.00 98 1015.7
20260506072538 16 32 0.0 3.2 0.00 0.00 0.00 98 1015.8
20260506072031 16 32 0.0 0.0 0.00 0.03 0.00 98 1015.9
20260506071530 17 32 0.0 0.0 0.00 0.03 0.00 98 1016.0
20260506071031 17 32 0.0 0.0 0.00 0.03 0.00 98 1016.0
20260506070515 17 32 0.0 0.0 0.00 0.03 0.00 98 1016.0
20260506070243 17 32 0.0 0.0 0.00 0.03 0.00 98 1015.9
20260506062400 17 32 0.0 0.0 0.00 0.03 0.00 98 1016.2
20260506061901 17 32 0.0 0.0 0.00 0.03 0.00 98 1016.3
20260506061359 17 32 0.0 0.0 0.00 0.03 0.00 98 1016.2
20260506060857 17 32 0.0 0.0 0.00 0.03 0.00 98 1016.4
20260506060331 17 32 0.0 0.0 0.00 0.03 0.00 98 1016.4
20260506051052 17 32 0.0 0.0 0.00 0.03 0.00 97 1016.4
20260506050524 17 32 0.0 0.0 0.00 0.03 0.00 97 1016.3
20260506045011 17 32 0.0 0.0 0.00 0.03 0.00 97 1016.2
20260506044509 17 93 0.0 0.0 0.00 0.03 0.00 97 1016.3
20260506043942 17 93 0.0 0.0 0.00 0.03 0.00 97 1016.3
20260506043439 17 311 0.0 0.0 0.00 0.03 0.00 97 1016.2
20260506042920 17 311 0.0 0.0 0.00 0.03 0.00 97 1016.2
20260506042415 17 311 0.0 0.0 0.00 0.03 0.00 97 1016.1
20260506041912 17 311 0.0 0.0 0.00 0.03 0.00 97 1015.9
20260506041354 17 311 0.0 0.0 0.00 0.03 0.00 98 1015.9
20260506040848 17 311 0.0 1.6 0.00 0.03 0.00 97 1016.0
20260506040348 17 311 0.0 1.6 0.00 0.03 0.00 97 1016.0
20260506040054 18 311 0.0 0.0 0.00 0.03 0.00 97 1016.0
20260506035308 18 311 0.0 1.6 0.00 0.03 0.00 97 1015.8
20260506034806 18 311 0.0 1.6 0.00 0.03 0.00 97 1015.8
20260506034019 18 311 0.0 3.2 0.00 0.03 0.00 97 1015.8
20260506033220 18 24 0.0 1.6 0.00 0.03 0.00 97 1015.8
20260506032720 18 105 0.0 1.6 0.00 0.03 0.00 97 1015.8
20260506032219 18 105 0.0 0.0 0.00 0.03 0.00 97 1015.7
20260506031721 18 105 0.0 0.0 0.00 0.03 0.00 97 1015.7
20260506031156 18 105 0.0 0.0 0.00 0.03 0.00 97 1015.8
20260506030700 18 105 0.0 0.0 0.00 0.03 0.00 97 1015.8
20260506030202 18 105 0.0 0.0 0.00 0.03 0.00 97 1015.7
20260506025923 18 105 0.0 1.6 0.00 0.03 0.03 97 1015.6
20260506025133 18 105 0.0 1.6 0.00 0.03 0.03 97 1015.7
20260506024623 18 328 0.0 3.2 0.00 0.03 0.03 97 1015.5
20260506024110 18 328 0.0 3.2 0.00 0.03 0.03 97 1015.6
20260506023541 18 328 0.0 3.2 0.00 0.03 0.03 97 1015.7
20260506023042 18 328 0.0 0.0 0.00 0.03 0.03 96 1015.7
20260506022810 18 328 0.0 1.6 0.00 0.03 0.03 96 1015.6
20260506022039 18 328 0.0 1.6 0.00 0.03 0.03 96 1015.5
20260506021537 18 303 0.0 0.0 0.00 0.03 0.03 96 1015.5
20260506021029 18 303 0.0 0.0 0.00 0.03 0.03 96 1015.4
20260506020801 18 303 0.0 0.0 0.00 0.03 0.03 96 1015.4
20260506020029 18 303 0.0 0.0 0.00 0.03 0.03 96 1015.5
20260506015521 18 303 0.0 0.0 0.00 0.03 0.03 96 1015.7
20260506015021 18 303 0.0 0.0 0.00 0.03 0.03 96 1015.8
20260506014518 18 303 0.0 0.0 0.00 0.03 0.03 96 1015.9
20260506014013 18 303 0.0 0.0 0.00 0.03 0.03 96 1015.9
20260506013503 19 303 0.0 0.0 0.00 0.03 0.03 96 1016.0
20260506013231 19 303 0.0 0.0 0.00 0.03 0.03 96 1016.0
20260506012727 19 303 0.0 0.0 0.00 0.03 0.03 95 1015.9
20260506011959 19 303 0.0 0.0 0.00 0.03 0.03 95 1016.0
20260506011432 19 303 0.0 0.0 0.00 0.03 0.03 95 1015.9
20260506010910 19 303 0.0 0.0 0.00 0.03 0.03 96 1015.9
20260506010401 19 303 0.0 0.0 0.00 0.03 0.03 95 1015.9
20260506005846 19 303 0.0 0.0 0.00 0.03 0.03 95 1015.9
20260506005337 19 303 0.0 0.0 0.00 0.03 0.03 95 1015.8
20260506004836 20 303 0.0 0.0 0.00 0.03 0.03 95 1015.8
20260506004308 20 303 0.0 0.0 0.00 0.03 0.03 94 1015.6
20260506003745 20 303 0.0 0.0 0.00 0.03 0.03 94 1015.6
20260506003241 20 303 0.0 0.0 0.00 0.03 0.03 94 1015.6
20260506002739 20 303 0.0 0.0 0.00 0.03 0.03 94 1015.5
20260506002234 20 303 0.0 0.0 0.00 0.03 0.03 94 1015.6
20260506001733 20 303 0.0 0.0 0.00 0.03 0.03 94 1015.5
20260506001441 20 303 0.0 0.0 0.00 0.03 0.03 94 1015.5
20260506000712 20 303 0.0 0.0 0.00 0.03 0.03 93 1015.6
20260506000211 20 303 0.0 0.0 0.00 0.03 0.03 93 1015.5
20260505235942 20 303 0.0 0.0 0.00 0.03 0.03 93 1015.5
20260505235205 20 303 0.0 0.0 0.00 0.03 0.03 93 1015.5
20260505234701 20 303 0.0 0.0 0.00 0.03 0.03 94 1015.4
20260505234131 20 303 0.0 0.0 0.00 0.03 0.03 93 1015.5
20260505233607 21 303 0.0 0.0 0.00 0.03 0.03 92 1015.4
20260505233102 21 303 0.0 0.0 0.00 0.03 0.03 92 1015.4
20260505232830 21 303 0.0 0.0 0.00 0.03 0.03 93 1015.3
20260505232049 21 303 0.0 0.0 0.00 0.03 0.03 93 1015.2
20260505231525 21 303 0.0 0.0 0.00 0.03 0.03 93 1015.2
20260505231005 21 303 0.0 0.0 0.00 0.03 0.03 93 1015.2
20260505230504 21 303 0.0 0.0 0.00 0.03 0.03 94 1015.1
20260505230005 21 303 0.0 0.0 0.00 0.03 0.03 93 1015.2
20260505225501 21 303 0.0 0.0 0.00 0.03 0.03 93 1015.1
20260505224950 21 303 0.0 0.0 0.00 0.03 0.03 93 1015.3
20260505224422 21 303 0.0 0.0 0.00 0.03 0.03 93 1015.3
20260505223857 21 303 0.0 0.0 0.00 0.03 0.03 93 1015.3
20260505223355 22 303 0.0 0.0 0.00 0.03 0.03 92 1015.3
20260505222825 22 303 0.0 0.0 0.00 0.03 0.03 91 1015.1
20260505222324 22 303 0.0 0.0 0.00 0.03 0.03 91 1015.3
20260505222043 22 303 0.0 0.0 0.00 0.03 0.03 91 1015.3
20260505221544 22 303 0.0 0.0 0.00 0.05 0.03 91 1015.3
20260505220808 22 303 0.0 0.0 0.00 0.05 0.03 91 1015.3
20260505220305 22 303 0.0 0.0 0.00 0.05 0.03 91 1015.2
20260505220029 22 303 0.0 0.0 0.00 0.05 0.03 91 1015.3
20260505215256 22 303 0.0 0.0 0.00 0.05 0.03 90 1015.3
20260505214730 23 303 0.0 0.0 0.00 0.05 0.03 89 1015.2
20260505214201 23 303 0.0 0.0 0.00 0.05 0.03 90 1015.1
20260505213903 23 303 0.0 0.0 0.00 0.05 0.03 89 1015.1
20260505213336 23 303 0.0 0.0 0.00 0.05 0.03 88 1015.1
20260505212559 23 303 0.0 0.0 0.00 0.05 0.03 88 1015.0
20260505212052 24 303 0.0 0.0 0.00 0.05 0.03 87 1015.0
20260505211528 24 303 0.0 0.0 0.00 0.05 0.03 85 1014.9
20260505211022 25 303 0.0 0.0 0.00 0.05 0.03 85 1014.9
20260505210501 25 303 0.0 0.0 0.00 0.05 0.03 84 1014.9
20260505210002 25 303 0.0 0.0 0.00 0.05 0.03 83 1014.9
20260505205503 25 303 0.0 0.0 0.00 0.05 0.03 82 1014.8
20260505205009 26 303 1.6 3.2 0.00 0.05 0.03 81 1014.7
20260505205001 26 303 0.0 1.6 0.00 0.05 0.03 82 1014.8
20260505203930 26 303 1.6 4.8 0.00 0.05 0.03 80 1014.6
20260505203400 27 303 1.6 4.8 0.00 0.05 0.03 78 1014.7
20260505202834 27 288 0.0 3.2 0.00 0.05 0.03 77 1014.7
20260505202318 28 288 0.0 3.2 0.00 0.05 0.03 75 1014.6
20260505201818 28 288 1.6 4.8 0.00 0.05 0.03 73 1014.7
20260505201319 29 288 1.6 4.8 0.00 0.05 0.03 72 1014.7
20260505200804 30 271 1.6 3.2 0.00 0.05 0.03 70 1014.7
20260505200304 31 17 0.0 1.6 0.00 0.05 0.03 66 1014.8
20260505195806 32 17 0.0 0.0 0.00 0.05 0.03 65 1014.7
20260505195740 32 17 0.0 0.0 0.00 0.05 0.03 63 1014.7
20260505194711 32 17 0.0 0.0 0.00 0.05 0.03 63 1014.7
20260505194202 32 17 0.0 3.2 0.00 0.05 0.03 60 1014.6
20260505193658 32 17 0.0 3.2 0.00 0.05 0.03 62 1014.6
20260505193154 32 332 0.0 6.4 0.00 0.05 0.03 63 1014.6
20260505192650 32 86 0.0 6.4 0.00 0.05 0.03 60 1014.6
20260505192128 32 56 0.0 0.0 0.00 0.05 0.03 62 1014.6
20260505191628 32 56 0.0 0.0 0.00 0.05 0.03 63 1014.7
20260505191125 32 26 0.0 1.6 0.00 0.05 0.03 60 1014.6
20260505190826 32 337 0.0 1.6 0.00 0.05 0.03 63 1014.7
20260505190054 32 337 0.0 4.8 0.00 0.05 0.03 62 1014.6
20260505185552 32 69 1.6 6.4 0.00 0.05 0.03 61 1014.6
20260505185054 32 52 1.6 6.4 0.00 0.05 0.03 61 1014.6
20260505184535 32 114 1.6 4.8 0.00 0.05 0.03 60 1014.6
20260505184036 32 51 1.6 4.8 0.00 0.05 0.03 61 1014.7
20260505183509 32 308 1.6 11.3 0.00 0.05 0.03 61 1014.7
20260505183213 32 234 1.6 11.3 0.00 0.05 0.03 60 1014.7
20260505182419 32 301 0.0 9.7 0.00 0.05 0.03 60 1014.6
20260505181908 32 7 1.6 8.0 0.00 0.05 0.03 62 1014.7
20260505181401 32 327 3.2 8.0 0.00 0.05 0.03 62 1014.7
20260505180856 32 348 1.6 8.0 0.00 0.05 0.03 64 1014.7
20260505180602 32 310 1.6 8.0 0.00 0.05 0.03 61 1014.7
20260505180055 32 322 1.6 8.0 0.00 0.08 0.03 62 1014.7
20260505175312 32 265 1.6 12.9 0.00 0.08 0.03 63 1014.7
20260505174812 32 347 3.2 12.9 0.00 0.08 0.03 63 1014.8
20260505174312 32 320 3.2 11.3 0.00 0.08 0.03 63 1014.7
20260505173747 31 27 3.2 11.3 0.00 0.08 0.03 62 1014.8
20260505173219 31 328 3.2 11.3 0.00 0.08 0.03 62 1014.8
20260505172713 31 335 3.2 9.7 0.00 0.08 0.03 63 1014.9
20260505172211 31 25 3.2 11.3 0.00 0.08 0.03 65 1014.8
20260505171642 31 315 4.8 11.3 0.00 0.08 0.03 63 1014.9
20260505171140 31 264 4.8 9.7 0.00 0.08 0.03 64 1015.1
20260505170630 31 287 4.8 12.9 0.00 0.08 0.03 65 1015.2
20260505170129 31 299 4.8 12.9 0.00 0.08 0.03 64 1015.2
20260505165616 31 42 3.2 11.3 0.00 0.08 0.03 64 1015.1
20260505165118 31 29 3.2 11.3 0.00 0.08 0.03 64 1015.2
20260505164614 31 357 3.2 11.3 0.00 0.08 0.03 64 1015.3
20260505164112 31 289 3.2 11.3 0.00 0.08 0.03 65 1015.4
20260505163559 30 29 6.4 12.9 0.00 0.08 0.03 67 1015.4
20260505163056 30 22 6.4 14.5 0.00 0.08 0.03 66 1015.5
20260505162553 30 316 6.4 14.5 0.00 0.08 0.03 65 1015.6
20260505162310 30 299 8.0 16.1 0.00 0.08 0.03 66 1015.7
20260505161812 30 18 6.4 16.1 0.00 0.08 0.03 67 1015.8
20260505161040 30 341 6.4 14.5 0.00 0.08 0.03 66 1015.8
20260505160539 30 299 6.4 14.5 0.00 0.08 0.03 66 1015.9
20260505152938 29 293 4.8 14.5 0.00 0.08 0.03 69 1016.4
20260505152428 29 343 6.4 14.5 0.00 0.08 0.03 70 1016.4
20260505151904 29 349 4.8 14.5 0.00 0.08 0.03 70 1016.5
20260505151402 28 301 4.8 14.5 0.00 0.08 0.03 70 1016.5